Simultaneous Nadir Overpasses (SNOs) Predictions

Prediction of SNOs between NOAA-15 and METOP-C Satellite Orbit:

Table of predicted SNOs for the next 14.0 days since TLE Epoch: 12/31/2021
Index Date (NOAA-15) Time (NOAA-15) Lat,Lon (NOAA-15) SZA (NOAA-15 ) Date (METOP-C) Time (METOP-C) Lat,Lon (METOP-C) SZA (METOP-C ) Distance(km) Time Diff (sec)
1 01/09/2022 11:42:01 -81.04,-137.61 75.30 01/09/2022 11:40:47 -81.03,-137.45 75.33 3.07 74
2 01/09/2022 12:32:29 81.04, 29.83 104.70 01/09/2022 12:31:28 81.04, 30.00 104.69 3.07 61
3 01/09/2022 13:23:02 -81.03,-162.48 75.29 01/09/2022 13:22:08 -81.04,-162.56 75.31 2.07 54
4 01/09/2022 14:13:31 81.04, 4.58 104.69 01/09/2022 14:12:50 81.03, 4.52 104.66 1.64 41
5 01/09/2022 15:04:05 -81.04, 171.91 75.32 01/09/2022 15:03:30 -81.03, 171.95 75.34 1.16 35
6 01/09/2022 15:54:33 81.04, -20.67 104.68 01/09/2022 15:54:11 81.04, -20.60 104.68 1.12 22
7 01/09/2022 16:45:07 -81.04, 146.66 75.33 01/09/2022 16:44:51 -81.04, 146.83 75.32 2.95 16
8 01/09/2022 17:35:35 81.04, -45.92 104.67 01/09/2022 17:35:33 81.03, -46.09 104.65 3.14 2
9 01/09/2022 18:26:09 -81.04, 121.42 75.34 01/09/2022 18:26:13 -81.04, 121.35 75.35 1.31 4
10 01/09/2022 19:16:37 81.04, -71.16 104.66 01/09/2022 19:16:54 81.04, -71.21 104.66 0.84 17
11 01/09/2022 20:07:11 -81.04, 96.17 75.35 01/09/2022 20:07:34 -81.05, 96.23 75.33 1.16 23
12 01/09/2022 20:57:39 81.04, -96.41 104.65 01/09/2022 20:58:15 81.05, -96.33 104.68 1.98 36
13 01/09/2022 21:48:13 -81.04, 70.93 75.36 01/09/2022 21:48:56 -81.04, 70.74 75.36 3.23 43
14 01/09/2022 22:38:41 81.04,-121.66 104.64 01/09/2022 22:39:37 81.04,-121.82 104.65 2.78 56
15 01/09/2022 23:29:15 -81.04, 45.68 75.37 01/09/2022 23:30:17 -81.05, 45.62 75.35 1.53 62



Historial Predications of SNOs between NOAA-15 and METOP-C
